Weather Roundup
Issued by NWS Springfield, MO

Home | Current Version | Previous Version | Text Only | Print | Product List | Glossary On
Versions: 1 2 3 4 5 6 7 8 9 10 11 12 13 14 15 16 17 18 19 20 21 22 23 24 25 26 27 28 29 30 31 32 33 34 35 36 37 38 39 40 41 42 43 44 45 46 47 48 49 50
000
NZUS99 KSGF 030310
HRRSGF

HOURLY WEATHER
NATIONAL WEATHER SERVICE SPRINGFIELD MO
1000 PM CDT WED SEP 02 2015

......SGF CWA......

CITY           SKY/WX    TMP DP  RH WIND       PRES   REMARKS
SPRINGFIELD    CLEAR     76  67  73 S7        30.02R
JOPLIN         CLEAR     76  69  79 S7        30.00
WEST PLAINS    CLEAR     73  68  84 CALM      30.06R
ROLLA          CLEAR     73  67  81 SE7       30.02R
OSAGE BEACH    CLEAR     75  64  69 SE5       30.01S
BRANSON        CLEAR     75  64  69 CALM      30.05R

......SURROUNDING SGF CWA......

CITY           SKY/WX    TMP DP  RH WIND       PRES   REMARKS
CHANUTE        CLEAR     76  70  82 S8        29.97R
PARSONS        CLEAR     76  70  82 SE5       29.97R
COFFEYVILLE    CLEAR     76  69  79 S8        29.96R
EMPORIA        CLEAR     77  67  71 S10       29.94R
GROVE OK       CLEAR     73  73 100 CALM      30.00S
ROGERS AR      CLEAR     74  68  81 CALM      30.04R
SILOAM SPRINGS CLEAR     75  64  69 SE7       30.01S
HARRISON AR    CLEAR     73  65  75 S6        30.05R
NEAR YELLVILLE CLEAR     81  64  57 SW3       30.01R

......KANSAS AND MISSOURI......

CITY           SKY/WX    TMP DP  RH WIND       PRES   REMARKS
KANSAS CTY INT CLEAR     74  69  85 S9        29.96R
DOWNTOWN KC    CLEAR     81  69  67 S7        29.94R
COLUMBIA       CLEAR     74  68  81 S8        30.00R
SEDALIA        CLEAR     74  69  85 S6        29.99R
ST JOSEPH      CLEAR     77  70  79 S8        29.93R
ST LOUIS       PTCLDY    83  69  62 S5        30.01S
SPIRIT OF STL  CLEAR     74  73  97 CALM      29.99S
KIRKSVILLE     MOCLDY    78  69  73 S10       29.98R
WICHITA        PTCLDY    80  66  62 S14       29.92R
TOPEKA         CLEAR     79  69  71 SE9       29.93R
OLATHE         CLEAR     75  69  81 S6        29.96R

......TENNESSEE......

CITY           SKY/WX    TMP DP  RH WIND       PRES   REMARKS
MEMPHIS        CLEAR     77  71  82 W3        30.01S
NASHVILLE      MOCLDY    82  68  62 E3        30.03R

......ARKANSAS.......

CITY           SKY/WX    TMP DP  RH WIND       PRES   REMARKS
FAYETTEVILLE   CLEAR     70  70 100 CALM      30.03R
FT SMITH       CLEAR     80  65  59 CALM      29.97R
LITTLE ROCK    NOT AVBL

......OKLAHOMA.......

CITY           SKY/WX    TMP DP  RH WIND       PRES   REMARKS
TULSA          PTCLDY    79  69  71 SE7       29.95R
PONCA CITY     CLEAR     82  66  58 SE13      29.93R
MCALESTER      CLEAR     82  64  54 S5        29.98R
OKLAHOMA CITY  MOCLDY    79  62  56 S9        29.96R

......IOWA............

CITY           SKY/WX    TMP DP  RH WIND       PRES   REMARKS
DES MOINES     PTCLDY    77  70  79 S8        29.91S
QUAD CITIES    CLEAR     77  69  76 S6        29.95R

......ILLINOIS........

CITY           SKY/WX    TMP DP  RH WIND       PRES   REMARKS
QUINCY         MOCLDY    78  69  73 S7        29.98S
CHICAGO        PTCLDY    79  68  69 SW3       29.97R




USA.gov is the U.S. government's official web portal to all federal, state and local government web resources and services.